Weather History for KSLE - January, 2014

Change the Weather History Date:

Friday, January 31, 2014

  Actual Average Record
Temperature  
Mean Temperature 45 °F 42 °F  
Max Temperature 50 °F 50 °F 62 °F (1995)
Min Temperature 40 °F 35 °F -10 °F (1950)
Degree Days  
Heating Degree Days 20 23  
Month to date heating degree days 728 738  
Since 1 July heating degree days 2658 2627  
Cooling Degree Days 0 0  
Month to date cooling degree days 0 0  
Year to date cooling degree days 0 0  
Moisture  
Dew Point 38 °F    
Average Humidity 79    
Maximum Humidity 92    
Minimum Humidity 66    
Precipitation  
Precipitation 0.01 in 0.17 in 1.73 in (1987)
Month to date precipitation 1.88 5.96  
Year to date precipitation 1.88 5.96  
Sea Level Pressure  
Sea Level Pressure 30.12 in    
Wind  
Wind Speed 8 mph (South)    
Max Wind Speed 16 mph    
Max Gust Speed 21 mph    
Visibility 10 miles    
Events Rain    
T = Trace of Precipitation, MM = Missing Value Source: NWS Daily Summary

Daily Weather History Graph

Daily Weather History Graph

Search for Another Location

Airport or City:

Trip Planner

Search our weather history database for the weather conditions in past years. The results will help you decide how hot, cold, wet, or windy it might be!

Date:

Astronomy

Jan. 31, 2014 Rise Set
Actual Time 7:32 AM PST 5:18 PM PST
Civil Twilight 7:01 AM PST 5:50 PM PST
Nautical Twilight 6:26 AM PST 6:25 PM PST
Astronomical Twilight 5:51 AM PST 6:59 PM PST
Moon 7:41 AM PST (1/31) 6:55 PM PST (1/31)
Length of Visible Light 10h 48m
Length of Day
9h 46m
New Moon, 1% of the Moon is Illuminated
Jan 31
New Moon
Feb 6
First Quarter
Feb 14
Full
Feb 22
Last Quarter
Mar 1
New

Hourly Weather History & Observations

Time (PST) Temp. Windchill Dew Point Humidity Pressure Visibility Wind Dir Wind Speed Gust Speed Precip Events Conditions
12:56 AM 42.1 °F 36.1 °F 37.9 °F 85% 30.03 in 10.0 mi South 10.4 mph - 0.02 in   Overcast
1:56 AM 41.0 °F 35.8 °F 37.9 °F 89% 30.04 in 10.0 mi South 8.1 mph - N/A   Overcast
2:56 AM 39.9 °F 35.8 °F 37.0 °F 89% 30.04 in 10.0 mi South 5.8 mph - N/A   Mostly Cloudy
3:56 AM 39.9 °F 35.1 °F 37.0 °F 89% 30.04 in 10.0 mi SSE 6.9 mph - N/A   Overcast
4:56 AM 39.9 °F 33.4 °F 37.0 °F 89% 30.05 in 10.0 mi South 10.4 mph - N/A   Overcast
5:56 AM 41.0 °F 34.3 °F 37.0 °F 86% 30.06 in 10.0 mi South 11.5 mph - N/A   Overcast
6:56 AM 41.0 °F 35.2 °F 37.0 °F 86% 30.07 in 10.0 mi South 9.2 mph - 0.00 in   Overcast
7:46 AM 41.0 °F 39.0 °F 37.0 °F 86% 30.08 in 10.0 mi Variable 3.5 mph - 0.00 in Rain Light Rain
7:56 AM 41.0 °F 37.1 °F 37.0 °F 86% 30.09 in 10.0 mi SSW 5.8 mph - 0.00 in   Overcast
8:56 AM 41.0 °F 35.2 °F 37.9 °F 89% 30.11 in 10.0 mi South 9.2 mph - 0.00 in Rain Light Rain
9:13 AM 42.1 °F 35.7 °F 37.9 °F 85% 30.11 in 10.0 mi South 11.5 mph - 0.00 in   Overcast
9:56 AM 42.1 °F 36.1 °F 37.9 °F 85% 30.13 in 10.0 mi South 10.4 mph - 0.00 in   Overcast
10:04 AM 42.1 °F 36.1 °F 37.9 °F 85% 30.12 in 10.0 mi South 10.4 mph - N/A   Mostly Cloudy
10:56 AM 45.0 °F 39.7 °F 39.9 °F 82% 30.14 in 10.0 mi South 10.4 mph - N/A   Overcast
11:56 AM 46.9 °F - 39.9 °F 77% 30.14 in 10.0 mi SSW 11.5 mph - N/A   Mostly Cloudy
12:24 PM 48.0 °F - 39.0 °F 71% 30.13 in 10.0 mi South 11.5 mph - N/A   Overcast
12:53 PM 48.2 °F - 39.2 °F 71% 30.12 in 10.0 mi South 11.5 mph - N/A   Mostly Cloudy
12:56 PM 50.0 °F - 39.9 °F 68% 30.12 in 10.0 mi South 10.4 mph - N/A   Mostly Cloudy
1:56 PM 48.9 °F - 39.0 °F 69% 30.12 in 10.0 mi South 10.4 mph - N/A   Scattered Clouds
2:56 PM 48.9 °F - 37.9 °F 66% 30.12 in 10.0 mi SSE 13.8 mph - N/A   Scattered Clouds
3:56 PM 48.0 °F - 37.0 °F 66% 30.13 in 10.0 mi South 10.4 mph - N/A   Overcast
4:56 PM 46.9 °F - 39.0 °F 74% 30.14 in 10.0 mi South 6.9 mph - N/A   Overcast
5:24 PM 46.0 °F 43.1 °F 39.9 °F 79% 30.14 in 10.0 mi South 5.8 mph - 0.00 in   Overcast
5:56 PM 44.1 °F 40.8 °F 39.9 °F 85% 30.14 in 10.0 mi South 5.8 mph - 0.00 in   Overcast
6:56 PM 44.1 °F 40.1 °F 39.0 °F 82% 30.15 in 10.0 mi SSW 6.9 mph - N/A   Mostly Cloudy
7:56 PM 43.0 °F 40.3 °F 39.0 °F 86% 30.16 in 10.0 mi SSE 4.6 mph - N/A   Overcast
8:56 PM 43.0 °F 39.5 °F 39.0 °F 86% 30.16 in 10.0 mi South 5.8 mph - N/A   Overcast
9:56 PM 43.0 °F 38.8 °F 39.0 °F 86% 30.17 in 10.0 mi SSE 6.9 mph - N/A   Overcast
10:40 PM 43.0 °F 39.5 °F 39.0 °F 86% 30.17 in 10.0 mi South 5.8 mph - N/A   Overcast
10:51 PM 42.8 °F 39.3 °F 39.2 °F 87% 30.17 in 10.0 mi South 5.8 mph - N/A   Overcast
10:56 PM 41.0 °F 38.0 °F 37.9 °F 89% 30.17 in 10.0 mi South 4.6 mph - N/A   Overcast
11:56 PM 41.0 °F 38.0 °F 37.9 °F 89% 30.17 in 10.0 mi SSE 4.6 mph - N/A   Overcast